Location: Aalen
(48.8330°N, 10.1000°E)
Time: 02:49:28
(UTC+02:00)

METEOR M2 - Visible Passes

Search period start: 16 April 2024 00:00
Search period end: 26 April 2024 00:00
Orbit: 818 x 826 km, 98.4° (Epoch: 15 April)

Date Brightness Start Highest point End Pass type
(mag) Time Alt. Az. Time Alt. Az. Time Alt. Az.
16 Apr ? 05:48:41 10° NE 05:52:36 20° E 05:56:28 10° SE visible
17 Apr ? 05:29:30 10° NE 05:32:09 14° E 05:34:47 10° ESE visible
22 Apr ? 05:28:53 10° NE 05:31:31 14° E 05:34:09 10° ESE visible
